カタログに戻る

STARLINK-6096

運用中通信VLEO
NORAD 56103·PAYLOAD·🇺🇸 United States

打ち上げ Mar 29, 2023 から Cape Canaveral Space Force Station

Loading…

次のパス (今後24時間)

TLE

最新Source: CelesTrak SupGP

元期: Sep 15, 2026, 02:38 UTC

1 56103C 23046L   26258.11020833  .00018275  00000+0  66206-3 0  2584
2 56103  42.9997 171.6132 0001079 257.0230  89.6535 15.27563676    19

AllMySatでSTARLINK-6096をリアルタイム追跡

Download on the App Store